Location: Observatoire
(46.1952°N, 5.3391°E)
Time: 06:12:15
(UTC+01:00)

Explorer 7 - Pass Details

Date: 26 February 2026
Orbit: 430 x 542 km, 50.2° (Epoch: 5 March)

Event Time Altitude Azimuth Distance (km) Brightness Sun altitude
Rises 14:02:14 0° 262° (W) 2,399 10.4 33.0°
Reaches altitude 10° 14:04:21 10° 267° (W) 1,540 9.5 32.8°
Maximum altitude 14:07:45 53° 346° (NNW) 549 6.9 32.6°
Drops below altitude 10° 14:11:15 10° 65° (ENE) 1,585 8.9 32.4°
Sets 14:13:28 0° 70° (ENE) 2,478 9.8 32.2°
